GFSSW_prec_pwat_057.txt.gz
Precipitable_Water
0.54 0.54 0.53 0.52 0.52 0.52 0.52 0.51 0.49 0.49 0.52 0.55 0.59 0.64 0.65 0.62 0.54 0.42 0.26 0.28 0.30 0.40 0.67 0.59 0.63 0.71 1.12 1.16 1.46 1.55 1.08 0.92 1.11 1.20 1.16 1.35 1.38 1.46 1.49 1.30 1.43 1.53 1.49 1.66 1.77
0.46 0.47 0.48 0.50 0.51 0.50 0.49 0.50 0.49 0.49 0.48 0.50 0.55 0.62 0.64 0.66 0.50 0.32 0.31 0.35 0.32 0.43 0.34 0.31 0.44 0.52 0.77 0.97 1.28 1.28 0.89 0.91 1.24 1.27 1.23 1.27 1.34 1.26 1.30 1.20 1.27 1.41 1.59 1.69 1.69
0.39 0.39 0.39 0.41 0.43 0.45 0.47 0.48 0.48 0.48 0.47 0.50 0.54 0.60 0.66 0.66 0.44 0.31 0.40 0.42 0.35 0.42 0.36 0.29 0.37 0.42 0.56 0.90 1.03 1.12 0.90 1.11 1.17 1.29 1.30 1.18 1.15 1.24 1.20 1.00 1.14 1.19 1.37 1.52 1.53
0.38 0.36 0.35 0.35 0.34 0.35 0.37 0.43 0.46 0.46 0.46 0.54 0.63 0.67 0.67 0.60 0.23 0.42 0.44 0.35 0.40 0.42 0.35 0.26 0.32 0.38 0.46 0.67 0.94 0.92 1.16 1.27 1.25 1.29 1.20 1.12 1.12 1.17 1.18 1.19 1.33 1.27 1.44 1.43 1.42
0.39 0.38 0.37 0.34 0.33 0.32 0.33 0.33 0.36 0.42 0.47 0.57 0.65 0.68 0.55 0.36 0.38 0.56 0.54 0.43 0.43 0.37 0.28 0.21 0.27 0.38 0.38 0.58 0.81 0.87 1.12 1.22 1.30 1.31 1.24 1.27 1.12 1.13 1.26 1.42 1.47 1.22 1.34 1.38 1.38
0.40 0.38 0.36 0.33 0.32 0.32 0.31 0.32 0.36 0.38 0.41 0.60 0.65 0.68 0.46 0.26 0.50 0.61 0.62 0.50 0.35 0.31 0.28 0.24 0.27 0.38 0.46 0.52 0.66 0.84 1.03 1.12 1.23 1.22 1.17 1.18 1.19 1.21 1.45 1.44 1.32 1.15 1.13 1.35 1.37
0.39 0.38 0.35 0.33 0.30 0.30 0.33 0.36 0.39 0.40 0.42 0.52 0.68 0.60 0.42 0.29 0.50 0.58 0.64 0.53 0.40 0.29 0.25 0.26 0.24 0.33 0.51 0.52 0.69 0.80 0.80 1.01 1.06 1.18 1.15 1.36 1.07 1.18 1.46 1.48 1.15 0.97 1.06 1.25 1.32
0.37 0.36 0.34 0.32 0.30 0.33 0.36 0.37 0.39 0.43 0.46 0.56 0.60 0.57 0.31 0.38 0.54 0.56 0.58 0.53 0.43 0.38 0.31 0.30 0.27 0.31 0.40 0.61 0.68 0.69 0.79 0.71 0.90 1.09 1.13 1.28 0.95 1.16 1.30 1.49 1.37 1.19 0.99 1.11 1.22
0.38 0.36 0.34 0.31 0.28 0.33 0.36 0.36 0.39 0.43 0.57 0.66 0.55 0.47 0.26 0.59 0.47 0.55 0.52 0.38 0.47 0.45 0.42 0.34 0.33 0.32 0.40 0.46 0.52 0.60 0.55 0.60 0.69 1.01 1.04 1.10 1.15 1.22 1.18 1.32 1.39 1.22 1.15 1.08 1.12
0.39 0.36 0.34 0.32 0.28 0.34 0.39 0.35 0.34 0.65 0.61 0.66 0.61 0.37 0.30 0.28 0.51 0.60 0.58 0.51 0.38 0.41 0.45 0.39 0.34 0.31 0.37 0.41 0.31 0.45 0.51 0.58 0.61 0.82 0.93 1.02 1.13 1.07 1.13 1.26 1.34 1.36 1.41 1.14 1.05
0.40 0.38 0.35 0.32 0.29 0.35 0.39 0.30 0.17 0.23 0.20 0.15 0.17 0.36 0.34 0.52 0.56 0.58 0.62 0.58 0.43 0.38 0.35 0.43 0.36 0.25 0.31 0.40 0.47 0.54 0.58 0.60 0.64 0.84 0.94 0.92 0.93 1.06 1.25 1.22 1.16 1.23 1.21 1.18 1.07
0.43 0.42 0.38 0.34 0.30 0.36 0.42 0.22 0.18 0.21 0.14 0.17 0.17 0.17 0.23 0.45 0.35 0.43 0.59 0.51 0.40 0.30 0.40 0.39 0.28 0.39 0.39 0.42 0.44 0.48 0.54 0.56 0.61 0.75 0.81 0.91 0.97 1.04 1.10 1.12 1.18 1.19 1.24 1.07 1.13
0.45 0.43 0.42 0.36 0.31 0.35 0.33 0.21 0.23 0.22 0.16 0.20 0.22 0.18 0.14 0.24 0.30 0.34 0.44 0.50 0.42 0.35 0.37 0.32 0.31 0.45 0.42 0.41 0.40 0.41 0.45 0.47 0.52 0.60 0.72 0.87 0.88 1.00 1.11 1.19 1.28 1.26 1.15 1.19 1.19
0.47 0.44 0.43 0.41 0.26 0.29 0.28 0.23 0.22 0.27 0.19 0.25 0.24 0.30 0.29 0.19 0.15 0.31 0.42 0.41 0.44 0.36 0.38 0.41 0.44 0.47 0.40 0.38 0.41 0.34 0.44 0.49 0.54 0.56 0.55 0.71 0.62 0.91 1.03 1.07 1.17 1.40 1.21 1.23 1.28
0.44 0.44 0.46 0.43 0.32 0.30 0.28 0.26 0.28 0.29 0.08 0.31 0.31 0.41 0.35 0.22 0.20 0.17 0.29 0.36 0.34 0.39 0.41 0.36 0.43 0.42 0.42 0.35 0.38 0.32 0.41 0.44 0.53 0.58 0.65 0.62 0.59 0.74 0.95 0.86 0.97 1.08 1.22 1.17 1.31
0.41 0.43 0.47 0.40 0.38 0.38 0.32 0.28 0.29 0.17 0.10 0.18 0.25 0.27 0.28 0.28 0.28 0.33 0.29 0.38 0.38 0.40 0.44 0.45 0.56 0.53 0.44 0.46 0.43 0.41 0.39 0.36 0.47 0.53 0.45 0.51 0.60 0.66 0.77 0.75 0.87 1.12 1.22 1.21 1.27
0.36 0.43 0.47 0.48 0.29 0.38 0.35 0.28 0.18 0.13 0.16 0.12 0.17 0.22 0.26 0.27 0.28 0.30 0.30 0.27 0.27 0.27 0.33 0.47 0.47 0.54 0.55 0.44 0.48 0.41 0.37 0.27 0.30 0.34 0.36 0.49 0.45 0.57 0.72 0.75 0.84 0.97 1.06 1.22 1.27
0.34 0.50 0.49 0.52 0.49 0.44 0.32 0.26 0.17 0.21 0.17 0.18 0.16 0.14 0.13 0.22 0.27 0.26 0.28 0.28 0.32 0.31 0.30 0.34 0.33 0.49 0.57 0.48 0.41 0.38 0.33 0.23 0.16 0.21 0.27 0.42 0.34 0.39 0.58 0.66 0.78 1.05 1.06 1.21 1.22
0.37 0.51 0.54 0.61 0.58 0.48 0.33 0.24 0.24 0.23 0.23 0.20 0.16 0.12 0.10 0.12 0.23 0.27 0.29 0.31 0.41 0.45 0.31 0.30 0.34 0.58 0.60 0.59 0.44 0.34 0.28 0.33 0.24 0.24 0.23 0.28 0.33 0.41 0.48 0.54 0.67 0.78 0.99 1.03 1.14
0.40 0.56 0.55 0.58 0.53 0.47 0.30 0.27 0.29 0.30 0.28 0.24 0.17 0.16 0.12 0.12 0.15 0.29 0.30 0.40 0.43 0.59 0.63 0.37 0.32 0.47 0.52 0.65 0.49 0.33 0.36 0.26 0.23 0.17 0.15 0.20 0.24 0.22 0.31 0.45 0.52 0.66 0.69 0.89 1.06
0.48 0.51 0.56 0.63 0.57 0.38 0.29 0.32 0.33 0.32 0.30 0.24 0.20 0.17 0.18 0.15 0.19 0.25 0.33 0.41 0.54 0.59 0.63 0.51 0.38 0.35 0.46 0.46 0.40 0.38 0.31 0.29 0.25 0.23 0.19 0.19 0.19 0.32 0.34 0.35 0.47 0.51 0.58 0.79 0.96
0.54 0.40 0.59 0.63 0.40 0.41 0.35 0.40 0.39 0.35 0.32 0.29 0.27 0.25 0.22 0.21 0.19 0.22 0.32 0.41 0.61 0.66 0.55 0.57 0.42 0.35 0.36 0.41 0.49 0.48 0.34 0.31 0.22 0.18 0.21 0.20 0.20 0.38 0.35 0.40 0.40 0.50 0.53 0.65 0.87
0.44 0.49 0.63 0.61 0.39 0.41 0.45 0.43 0.41 0.35 0.34 0.31 0.27 0.28 0.28 0.25 0.19 0.23 0.33 0.49 0.62 0.63 0.58 0.58 0.44 0.32 0.34 0.41 0.44 0.42 0.38 0.34 0.33 0.29 0.20 0.17 0.21 0.35 0.36 0.42 0.40 0.43 0.48 0.49 0.69
0.51 0.41 0.51 0.54 0.55 0.47 0.41 0.40 0.40 0.43 0.41 0.37 0.30 0.31 0.29 0.32 0.29 0.23 0.34 0.52 0.60 0.62 0.71 0.69 0.48 0.40 0.33 0.36 0.39 0.36 0.40 0.37 0.33 0.28 0.24 0.20 0.27 0.35 0.40 0.44 0.43 0.44 0.48 0.55 0.55
0.50 0.47 0.53 0.40 0.45 0.46 0.45 0.42 0.41 0.37 0.46 0.42 0.33 0.31 0.35 0.29 0.26 0.26 0.34 0.43 0.53 0.64 0.67 0.58 0.41 0.42 0.45 0.47 0.46 0.43 0.42 0.38 0.32 0.30 0.28 0.27 0.27 0.34 0.42 0.46 0.48 0.51 0.51 0.55 0.60
0.48 0.51 0.58 0.54 0.54 0.46 0.44 0.40 0.39 0.43 0.42 0.34 0.32 0.33 0.33 0.23 0.30 0.32 0.34 0.37 0.42 0.54 0.61 0.57 0.45 0.47 0.41 0.47 0.48 0.50 0.50 0.40 0.36 0.33 0.32 0.35 0.28 0.43 0.45 0.50 0.49 0.50 0.51 0.51 0.61
0.68 0.72 0.63 0.55 0.52 0.46 0.43 0.43 0.42 0.42 0.40 0.41 0.37 0.34 0.33 0.32 0.40 0.39 0.33 0.37 0.41 0.47 0.51 0.52 0.46 0.43 0.35 0.47 0.52 0.45 0.50 0.48 0.41 0.40 0.35 0.31 0.33 0.47 0.43 0.44 0.48 0.51 0.54 0.57 0.65

GFSSW_prec_pwat_060.txt.gz
Precipitable_Water
0.46 0.46 0.46 0.47 0.48 0.49 0.49 0.48 0.48 0.49 0.49 0.47 0.52 0.55 0.61 0.65 0.62 0.50 0.26 0.29 0.32 0.54 0.82 0.74 0.74 0.81 1.01 1.08 1.40 1.60 1.12 0.96 1.04 1.09 1.21 1.52 1.43 1.68 1.64 1.36 1.41 1.50 1.45 1.50 1.75
0.41 0.40 0.39 0.39 0.40 0.42 0.44 0.47 0.47 0.47 0.46 0.47 0.51 0.55 0.58 0.62 0.52 0.38 0.43 0.44 0.35 0.34 0.52 0.46 0.44 0.69 0.81 0.88 1.23 1.23 1.02 0.97 1.23 1.25 1.22 1.31 1.41 1.43 1.30 1.24 1.28 1.46 1.52 1.62 1.70
0.39 0.38 0.37 0.37 0.36 0.36 0.37 0.40 0.42 0.44 0.45 0.47 0.52 0.62 0.63 0.63 0.39 0.37 0.44 0.41 0.43 0.40 0.36 0.45 0.44 0.43 0.54 0.77 1.04 1.13 0.99 1.08 1.20 1.28 1.31 1.28 1.32 1.43 1.26 1.06 1.21 1.26 1.36 1.51 1.55
0.39 0.37 0.36 0.35 0.34 0.35 0.36 0.37 0.38 0.40 0.46 0.49 0.56 0.62 0.65 0.52 0.21 0.43 0.48 0.43 0.42 0.42 0.32 0.29 0.31 0.36 0.40 0.54 0.93 0.85 1.11 1.15 1.26 1.33 1.29 1.21 1.34 1.31 1.33 1.12 1.33 1.33 1.44 1.47 1.43
0.37 0.36 0.35 0.34 0.32 0.31 0.35 0.39 0.40 0.40 0.42 0.44 0.57 0.64 0.52 0.33 0.28 0.52 0.62 0.60 0.46 0.38 0.30 0.25 0.20 0.26 0.29 0.46 0.76 0.82 1.03 1.17 1.31 1.29 1.27 1.31 1.21 1.35 1.31 1.36 1.45 1.33 1.37 1.35 1.36
0.38 0.36 0.35 0.33 0.31 0.32 0.36 0.39 0.40 0.42 0.46 0.47 0.53 0.62 0.43 0.23 0.40 0.49 0.59 0.62 0.41 0.31 0.30 0.29 0.20 0.26 0.29 0.42 0.60 0.79 1.00 1.15 1.27 1.26 1.28 1.24 1.23 1.34 1.37 1.43 1.29 1.18 1.17 1.32 1.30
0.37 0.36 0.34 0.33 0.31 0.31 0.35 0.37 0.38 0.38 0.46 0.48 0.57 0.54 0.36 0.24 0.36 0.57 0.69 0.60 0.54 0.33 0.24 0.29 0.27 0.29 0.34 0.40 0.63 0.75 0.78 0.88 1.12 1.19 1.24 1.24 1.10 1.22 1.54 1.52 1.13 1.00 1.06 1.28 1.35
0.39 0.38 0.37 0.34 0.32 0.30 0.34 0.35 0.35 0.44 0.51 0.56 0.66 0.54 0.19 0.32 0.45 0.45 0.56 0.63 0.63 0.44 0.28 0.31 0.29 0.30 0.31 0.43 0.49 0.62 0.66 0.59 0.83 1.07 1.25 1.26 0.92 1.30 1.51 1.42 1.33 1.24 0.95 1.14 1.26
0.44 0.43 0.41 0.37 0.33 0.31 0.35 0.36 0.34 0.48 0.60 0.59 0.57 0.47 0.18 0.39 0.39 0.47 0.56 0.56 0.55 0.42 0.34 0.32 0.30 0.23 0.32 0.32 0.37 0.53 0.44 0.52 0.65 0.92 1.10 1.16 1.04 1.23 1.54 1.47 1.39 1.34 1.08 0.99 1.13
0.47 0.45 0.43 0.41 0.35 0.33 0.39 0.34 0.29 0.45 0.64 0.56 0.61 0.36 0.26 0.27 0.41 0.50 0.61 0.59 0.50 0.43 0.37 0.32 0.26 0.19 0.21 0.27 0.23 0.40 0.45 0.56 0.61 0.78 1.00 1.06 1.06 1.22 1.34 1.38 1.39 1.38 1.29 1.03 1.00
0.44 0.42 0.41 0.39 0.36 0.34 0.40 0.25 0.15 0.14 0.25 0.18 0.17 0.20 0.23 0.31 0.39 0.45 0.57 0.54 0.53 0.43 0.30 0.32 0.21 0.14 0.17 0.26 0.34 0.47 0.48 0.51 0.65 0.88 0.91 0.96 1.01 1.07 1.22 1.22 1.28 1.36 1.34 1.25 0.87
0.41 0.39 0.40 0.39 0.36 0.39 0.39 0.21 0.19 0.21 0.14 0.25 0.27 0.22 0.19 0.27 0.28 0.40 0.51 0.43 0.45 0.35 0.38 0.35 0.20 0.23 0.29 0.33 0.35 0.44 0.44 0.47 0.59 0.73 0.84 0.96 1.01 1.09 1.15 1.12 1.27 1.37 1.33 1.29 1.06
0.37 0.38 0.38 0.42 0.36 0.31 0.31 0.23 0.28 0.26 0.16 0.27 0.29 0.26 0.22 0.24 0.26 0.38 0.45 0.46 0.46 0.39 0.38 0.30 0.32 0.35 0.33 0.32 0.32 0.39 0.40 0.43 0.49 0.70 0.81 0.88 0.92 1.03 1.16 1.16 1.29 1.40 1.37 1.35 1.20
0.32 0.33 0.37 0.42 0.25 0.32 0.26 0.26 0.33 0.28 0.11 0.27 0.26 0.29 0.25 0.22 0.18 0.38 0.40 0.40 0.42 0.38 0.40 0.37 0.40 0.41 0.35 0.33 0.34 0.28 0.44 0.50 0.56 0.58 0.53 0.78 0.55 0.88 1.00 1.05 1.13 1.22 1.24 1.26 1.28
0.31 0.31 0.38 0.44 0.30 0.26 0.28 0.33 0.33 0.27 0.05 0.18 0.22 0.31 0.27 0.22 0.22 0.24 0.39 0.36 0.32 0.39 0.41 0.33 0.38 0.38 0.40 0.34 0.40 0.30 0.45 0.49 0.58 0.55 0.56 0.65 0.67 0.69 0.95 0.88 1.00 1.03 1.12 1.16 1.26
0.31 0.30 0.45 0.40 0.36 0.31 0.36 0.37 0.29 0.15 0.08 0.15 0.18 0.21 0.23 0.24 0.23 0.24 0.28 0.37 0.37 0.33 0.38 0.41 0.46 0.49 0.44 0.50 0.50 0.46 0.41 0.47 0.54 0.50 0.39 0.50 0.61 0.58 0.73 0.80 0.87 0.95 0.99 1.10 1.21
0.31 0.38 0.51 0.50 0.32 0.45 0.44 0.29 0.15 0.11 0.19 0.15 0.15 0.15 0.14 0.22 0.23 0.22 0.24 0.28 0.33 0.27 0.23 0.33 0.38 0.44 0.49 0.49 0.55 0.49 0.38 0.28 0.29 0.36 0.33 0.46 0.51 0.56 0.72 0.87 0.89 0.86 0.95 1.11 1.21
0.37 0.52 0.60 0.57 0.57 0.54 0.42 0.24 0.12 0.19 0.17 0.21 0.20 0.18 0.14 0.14 0.19 0.24 0.24 0.26 0.39 0.41 0.35 0.26 0.25 0.39 0.47 0.47 0.45 0.43 0.39 0.26 0.18 0.24 0.29 0.39 0.38 0.43 0.63 0.86 0.94 0.91 0.95 1.07 1.15
0.45 0.58 0.60 0.59 0.60 0.54 0.35 0.20 0.22 0.23 0.23 0.21 0.20 0.18 0.17 0.17 0.15 0.23 0.22 0.31 0.37 0.46 0.37 0.33 0.27 0.44 0.49 0.52 0.53 0.44 0.36 0.38 0.30 0.28 0.26 0.32 0.40 0.48 0.56 0.59 0.70 0.69 0.87 1.02 1.08
0.42 0.58 0.54 0.61 0.59 0.49 0.32 0.25 0.30 0.34 0.29 0.25 0.18 0.19 0.18 0.18 0.15 0.13 0.22 0.29 0.37 0.47 0.54 0.47 0.29 0.38 0.44 0.56 0.57 0.50 0.51 0.36 0.34 0.23 0.20 0.25 0.28 0.30 0.47 0.51 0.52 0.55 0.79 0.95 1.05
0.42 0.46 0.56 0.63 0.58 0.42 0.30 0.33 0.37 0.40 0.36 0.27 0.24 0.22 0.23 0.22 0.20 0.16 0.16 0.23 0.35 0.42 0.51 0.53 0.43 0.32 0.47 0.42 0.43 0.49 0.46 0.41 0.37 0.30 0.22 0.19 0.20 0.29 0.37 0.50 0.52 0.57 0.72 0.99 1.01
0.44 0.38 0.59 0.59 0.38 0.43 0.39 0.42 0.46 0.42 0.42 0.36 0.32 0.30 0.29 0.27 0.21 0.18 0.17 0.22 0.33 0.42 0.39 0.56 0.47 0.34 0.36 0.48 0.49 0.53 0.50 0.46 0.30 0.25 0.26 0.21 0.15 0.28 0.33 0.37 0.42 0.45 0.60 0.79 0.91
0.39 0.47 0.60 0.56 0.34 0.40 0.45 0.44 0.47 0.44 0.43 0.40 0.35 0.33 0.34 0.26 0.19 0.23 0.22 0.26 0.32 0.36 0.42 0.58 0.49 0.32 0.29 0.43 0.49 0.46 0.47 0.48 0.38 0.31 0.24 0.18 0.14 0.30 0.34 0.35 0.40 0.38 0.45 0.65 0.88
0.49 0.39 0.49 0.51 0.50 0.45 0.42 0.40 0.38 0.50 0.48 0.50 0.46 0.40 0.34 0.27 0.27 0.23 0.23 0.26 0.34 0.40 0.55 0.62 0.49 0.42 0.31 0.40 0.51 0.44 0.44 0.42 0.40 0.28 0.25 0.21 0.21 0.30 0.30 0.33 0.42 0.40 0.44 0.60 0.72
0.54 0.47 0.54 0.42 0.46 0.49 0.47 0.42 0.37 0.37 0.50 0.50 0.41 0.40 0.34 0.26 0.25 0.24 0.26 0.26 0.32 0.45 0.54 0.56 0.41 0.45 0.41 0.47 0.49 0.46 0.45 0.42 0.38 0.34 0.27 0.25 0.24 0.30 0.33 0.37 0.51 0.43 0.45 0.58 0.70
0.53 0.52 0.60 0.55 0.55 0.50 0.46 0.41 0.40 0.42 0.43 0.39 0.38 0.37 0.38 0.30 0.28 0.22 0.25 0.28 0.28 0.44 0.46 0.57 0.44 0.46 0.37 0.47 0.49 0.46 0.47 0.46 0.44 0.38 0.33 0.31 0.28 0.35 0.37 0.53 0.53 0.48 0.50 0.52 0.63
0.74 0.76 0.65 0.55 0.54 0.48 0.46 0.46 0.43 0.45 0.43 0.42 0.39 0.37 0.34 0.33 0.39 0.38 0.36 0.31 0.32 0.39 0.44 0.50 0.47 0.41 0.34 0.48 0.51 0.45 0.50 0.52 0.47 0.41 0.38 0.30 0.33 0.40 0.46 0.57 0.58 0.59 0.57 0.60 0.70

GFSSW_prec_pwat_063.txt.gz
Precipitable_Water
0.41 0.40 0.39 0.40 0.40 0.41 0.43 0.45 0.45 0.46 0.46 0.47 0.48 0.48 0.55 0.58 0.60 0.53 0.31 0.35 0.33 0.56 0.66 0.64 0.84 0.90 1.14 1.08 1.41 1.58 1.18 0.97 0.99 1.06 1.20 1.45 1.40 1.57 1.69 1.46 1.48 1.49 1.46 1.53 1.68
0.39 0.38 0.37 0.37 0.37 0.37 0.37 0.39 0.41 0.43 0.47 0.50 0.50 0.51 0.56 0.59 0.49 0.38 0.44 0.48 0.43 0.62 0.55 0.49 0.51 0.75 0.82 0.92 1.19 1.20 0.95 1.01 1.24 1.24 1.20 1.40 1.39 1.41 1.35 1.22 1.25 1.36 1.55 1.60 1.65
0.38 0.37 0.36 0.36 0.36 0.37 0.38 0.39 0.40 0.41 0.43 0.48 0.52 0.53 0.59 0.59 0.32 0.33 0.49 0.53 0.48 0.68 0.58 0.51 0.50 0.61 0.58 0.73 0.98 1.11 0.87 1.13 1.20 1.28 1.29 1.23 1.28 1.43 1.30 1.09 1.24 1.24 1.37 1.52 1.54
0.39 0.38 0.38 0.37 0.36 0.35 0.35 0.39 0.40 0.42 0.44 0.46 0.49 0.57 0.59 0.49 0.19 0.47 0.59 0.50 0.53 0.39 0.47 0.39 0.39 0.41 0.46 0.54 0.75 0.81 1.12 1.22 1.23 1.29 1.29 1.22 1.35 1.25 1.32 1.23 1.30 1.38 1.44 1.49 1.41
0.39 0.39 0.39 0.37 0.36 0.34 0.33 0.37 0.39 0.40 0.41 0.46 0.48 0.53 0.50 0.30 0.24 0.42 0.72 0.65 0.57 0.32 0.33 0.31 0.26 0.26 0.25 0.44 0.64 0.76 1.02 1.18 1.23 1.26 1.33 1.35 1.20 1.20 1.30 1.42 1.42 1.31 1.41 1.39 1.39
0.45 0.44 0.41 0.39 0.37 0.34 0.31 0.35 0.39 0.38 0.44 0.51 0.51 0.56 0.33 0.19 0.33 0.53 0.61 0.68 0.50 0.30 0.28 0.31 0.26 0.28 0.22 0.34 0.54 0.77 1.03 1.08 1.13 1.19 1.24 1.22 1.26 1.26 1.34 1.42 1.31 1.17 1.22 1.31 1.36
0.46 0.44 0.42 0.41 0.39 0.35 0.31 0.35 0.40 0.39 0.49 0.52 0.55 0.54 0.31 0.14 0.36 0.58 0.71 0.61 0.56 0.35 0.24 0.28 0.28 0.25 0.24 0.25 0.46 0.69 0.80 0.88 0.91 1.13 1.24 1.33 1.15 1.18 1.44 1.43 1.31 1.11 1.07 1.27 1.34
0.42 0.41 0.40 0.40 0.39 0.36 0.31 0.37 0.39 0.39 0.53 0.54 0.60 0.53 0.22 0.31 0.38 0.42 0.53 0.58 0.69 0.57 0.38 0.34 0.33 0.26 0.23 0.33 0.37 0.51 0.70 0.64 0.82 1.01 1.19 1.14 0.91 1.26 1.49 1.44 1.32 1.24 1.05 1.16 1.30
0.39 0.38 0.37 0.38 0.39 0.36 0.36 0.36 0.37 0.46 0.60 0.62 0.51 0.45 0.18 0.46 0.33 0.38 0.46 0.52 0.65 0.60 0.46 0.36 0.33 0.26 0.24 0.23 0.29 0.42 0.45 0.60 0.72 0.92 1.05 1.03 0.95 1.28 1.51 1.42 1.36 1.32 1.16 1.12 1.20
0.35 0.33 0.35 0.36 0.40 0.36 0.38 0.34 0.36 0.50 0.57 0.59 0.61 0.33 0.29 0.30 0.31 0.33 0.38 0.59 0.59 0.54 0.38 0.32 0.26 0.20 0.20 0.19 0.17 0.30 0.38 0.57 0.63 0.74 0.90 0.88 0.99 1.21 1.38 1.36 1.36 1.39 1.32 1.10 1.07
0.33 0.31 0.33 0.33 0.39 0.37 0.37 0.22 0.17 0.14 0.20 0.23 0.24 0.23 0.21 0.23 0.34 0.36 0.42 0.52 0.59 0.45 0.27 0.28 0.20 0.13 0.13 0.18 0.26 0.36 0.42 0.52 0.66 0.72 0.71 0.80 0.92 1.11 1.28 1.29 1.33 1.37 1.38 1.26 1.10
0.33 0.32 0.33 0.35 0.36 0.33 0.34 0.20 0.23 0.26 0.12 0.26 0.29 0.27 0.24 0.23 0.22 0.38 0.48 0.42 0.43 0.36 0.39 0.28 0.18 0.20 0.21 0.18 0.22 0.30 0.37 0.44 0.62 0.72 0.81 0.83 0.85 1.09 1.20 1.20 1.28 1.34 1.37 1.33 1.17
0.32 0.31 0.32 0.38 0.34 0.28 0.26 0.24 0.35 0.32 0.14 0.22 0.31 0.25 0.23 0.23 0.23 0.28 0.38 0.46 0.39 0.37 0.39 0.33 0.32 0.31 0.23 0.19 0.16 0.25 0.30 0.45 0.54 0.71 0.85 0.80 0.82 0.97 1.13 1.29 1.36 1.45 1.45 1.42 1.28
0.32 0.33 0.37 0.41 0.23 0.27 0.21 0.30 0.38 0.32 0.12 0.18 0.22 0.24 0.23 0.25 0.20 0.32 0.37 0.37 0.38 0.33 0.39 0.38 0.41 0.42 0.29 0.21 0.22 0.18 0.35 0.48 0.53 0.55 0.45 0.70 0.48 0.81 0.98 1.02 1.16 1.27 1.37 1.36 1.37
0.32 0.37 0.47 0.47 0.30 0.25 0.29 0.38 0.36 0.26 0.06 0.18 0.18 0.25 0.24 0.22 0.22 0.26 0.38 0.39 0.34 0.33 0.39 0.33 0.37 0.36 0.36 0.24 0.31 0.23 0.38 0.45 0.54 0.55 0.54 0.61 0.54 0.65 0.86 0.83 0.99 1.12 1.24 1.32 1.39
0.32 0.46 0.57 0.48 0.44 0.42 0.47 0.42 0.30 0.15 0.08 0.15 0.19 0.16 0.17 0.19 0.24 0.22 0.34 0.43 0.43 0.37 0.38 0.36 0.45 0.43 0.38 0.43 0.38 0.40 0.36 0.44 0.51 0.53 0.43 0.49 0.52 0.48 0.64 0.75 0.89 1.07 1.16 1.22 1.33
0.34 0.51 0.60 0.58 0.42 0.53 0.49 0.30 0.14 0.10 0.18 0.16 0.17 0.17 0.16 0.17 0.20 0.24 0.27 0.31 0.31 0.27 0.30 0.36 0.36 0.44 0.44 0.39 0.50 0.46 0.41 0.26 0.31 0.36 0.34 0.50 0.46 0.41 0.61 0.76 0.89 0.98 1.00 1.14 1.26
0.37 0.58 0.63 0.60 0.55 0.53 0.40 0.22 0.11 0.18 0.17 0.21 0.19 0.18 0.15 0.17 0.18 0.20 0.25 0.24 0.36 0.37 0.34 0.29 0.22 0.37 0.46 0.41 0.37 0.43 0.43 0.30 0.21 0.25 0.34 0.45 0.37 0.35 0.55 0.79 0.92 1.00 1.05 1.12 1.21
0.39 0.52 0.56 0.54 0.56 0.52 0.33 0.17 0.20 0.23 0.26 0.23 0.22 0.18 0.16 0.18 0.19 0.18 0.21 0.26 0.34 0.37 0.30 0.32 0.29 0.43 0.48 0.49 0.46 0.42 0.38 0.45 0.32 0.32 0.29 0.36 0.43 0.44 0.56 0.67 0.81 0.86 0.97 1.05 1.08
0.36 0.49 0.51 0.59 0.59 0.47 0.29 0.22 0.29 0.37 0.34 0.30 0.22 0.23 0.18 0.19 0.18 0.19 0.18 0.25 0.31 0.35 0.36 0.40 0.29 0.40 0.45 0.52 0.47 0.44 0.52 0.39 0.36 0.24 0.21 0.27 0.32 0.30 0.43 0.56 0.66 0.77 0.90 0.90 0.95
0.42 0.43 0.54 0.59 0.54 0.40 0.27 0.31 0.37 0.44 0.42 0.32 0.28 0.25 0.25 0.23 0.22 0.21 0.21 0.23 0.29 0.29 0.31 0.30 0.34 0.32 0.42 0.42 0.41 0.43 0.42 0.45 0.44 0.34 0.24 0.20 0.26 0.35 0.38 0.54 0.60 0.67 0.70 0.75 0.80
0.48 0.37 0.60 0.58 0.37 0.41 0.36 0.41 0.45 0.44 0.47 0.41 0.37 0.32 0.29 0.28 0.25 0.23 0.21 0.23 0.30 0.29 0.24 0.33 0.32 0.28 0.33 0.46 0.53 0.52 0.45 0.47 0.36 0.31 0.32 0.27 0.21 0.36 0.35 0.44 0.52 0.65 0.61 0.64 0.77
0.45 0.51 0.63 0.57 0.36 0.38 0.45 0.43 0.45 0.42 0.44 0.43 0.41 0.42 0.39 0.32 0.25 0.28 0.28 0.33 0.35 0.29 0.28 0.31 0.34 0.25 0.28 0.35 0.50 0.46 0.49 0.48 0.48 0.46 0.33 0.26 0.20 0.34 0.35 0.38 0.47 0.51 0.52 0.63 0.72
0.51 0.42 0.52 0.56 0.54 0.47 0.43 0.40 0.38 0.46 0.46 0.47 0.45 0.47 0.43 0.34 0.34 0.30 0.30 0.34 0.35 0.35 0.42 0.40 0.31 0.27 0.26 0.32 0.46 0.43 0.47 0.48 0.47 0.37 0.35 0.28 0.28 0.30 0.30 0.30 0.39 0.42 0.44 0.45 0.63
0.54 0.49 0.56 0.45 0.48 0.50 0.48 0.43 0.39 0.40 0.48 0.48 0.41 0.44 0.41 0.33 0.31 0.26 0.28 0.28 0.33 0.42 0.36 0.32 0.23 0.30 0.35 0.41 0.44 0.47 0.47 0.47 0.43 0.43 0.34 0.33 0.29 0.29 0.30 0.31 0.35 0.40 0.38 0.40 0.42
0.53 0.53 0.61 0.55 0.55 0.49 0.47 0.42 0.41 0.41 0.42 0.38 0.37 0.41 0.39 0.32 0.32 0.27 0.29 0.27 0.25 0.34 0.31 0.34 0.21 0.31 0.29 0.38 0.42 0.46 0.52 0.52 0.50 0.47 0.44 0.36 0.29 0.35 0.44 0.49 0.48 0.48 0.42 0.46 0.45
0.75 0.77 0.66 0.54 0.51 0.46 0.45 0.46 0.44 0.48 0.47 0.46 0.40 0.36 0.33 0.33 0.36 0.37 0.37 0.36 0.32 0.28 0.27 0.26 0.25 0.30 0.26 0.39 0.44 0.42 0.54 0.61 0.59 0.56 0.49 0.32 0.40 0.53 0.50 0.54 0.62 0.66 0.63 0.50 0.55

GFSSW_prec_pwat_069.txt.gz
Precipitable_Water
0.47 0.45 0.44 0.44 0.43 0.43 0.41 0.38 0.42 0.44 0.45 0.46 0.49 0.52 0.52 0.53 0.53 0.46 0.30 0.36 0.44 0.40 0.80 1.06 1.14 1.18 1.26 1.16 1.34 1.55 1.20 1.01 1.03 1.12 1.22 1.47 1.44 1.61 1.66 1.42 1.50 1.53 1.49 1.52 1.70
0.48 0.46 0.46 0.45 0.44 0.44 0.43 0.41 0.39 0.43 0.44 0.45 0.44 0.49 0.53 0.55 0.43 0.30 0.32 0.42 0.50 0.48 0.74 0.65 0.69 0.94 0.90 0.99 1.15 1.14 1.10 1.06 1.25 1.31 1.26 1.40 1.42 1.42 1.33 1.30 1.34 1.43 1.55 1.62 1.65
0.42 0.41 0.41 0.42 0.44 0.45 0.45 0.42 0.40 0.41 0.43 0.45 0.47 0.51 0.52 0.54 0.28 0.29 0.63 0.73 0.55 0.52 0.75 0.75 0.72 0.71 0.63 0.88 0.97 1.01 0.97 1.26 1.29 1.35 1.39 1.39 1.37 1.41 1.28 1.17 1.32 1.29 1.42 1.53 1.54
0.39 0.38 0.38 0.38 0.39 0.42 0.44 0.41 0.39 0.42 0.43 0.42 0.47 0.49 0.51 0.40 0.16 0.45 0.66 0.72 0.62 0.62 0.65 0.57 0.56 0.41 0.46 0.56 0.85 0.81 0.99 1.25 1.30 1.37 1.34 1.28 1.39 1.25 1.25 1.27 1.46 1.48 1.52 1.51 1.48
0.37 0.36 0.35 0.35 0.38 0.41 0.41 0.39 0.40 0.41 0.42 0.44 0.49 0.49 0.41 0.19 0.15 0.52 0.73 0.70 0.67 0.64 0.46 0.40 0.39 0.33 0.27 0.46 0.60 0.73 0.87 1.00 1.20 1.30 1.28 1.32 1.24 1.25 1.23 1.42 1.52 1.48 1.51 1.48 1.46
0.36 0.33 0.34 0.35 0.37 0.39 0.39 0.39 0.40 0.40 0.43 0.49 0.53 0.54 0.31 0.11 0.36 0.54 0.61 0.72 0.63 0.63 0.43 0.44 0.39 0.38 0.29 0.32 0.42 0.61 0.62 0.92 1.08 1.10 1.16 1.09 1.19 1.32 1.29 1.39 1.39 1.40 1.36 1.43 1.42
0.36 0.32 0.32 0.35 0.38 0.38 0.37 0.38 0.38 0.41 0.45 0.53 0.54 0.51 0.29 0.15 0.38 0.47 0.62 0.65 0.80 0.68 0.39 0.47 0.47 0.33 0.28 0.23 0.34 0.47 0.53 0.69 0.88 1.01 1.02 1.14 1.11 1.14 1.31 1.36 1.23 1.30 1.27 1.37 1.35
0.36 0.34 0.33 0.36 0.38 0.36 0.35 0.34 0.37 0.44 0.49 0.51 0.62 0.52 0.21 0.42 0.44 0.46 0.58 0.62 0.83 0.67 0.53 0.42 0.44 0.37 0.28 0.26 0.23 0.26 0.44 0.56 0.79 0.95 0.98 1.06 0.87 1.22 1.34 1.25 1.18 1.21 1.15 1.27 1.31
0.35 0.33 0.33 0.41 0.39 0.35 0.34 0.38 0.45 0.51 0.52 0.62 0.52 0.42 0.21 0.44 0.26 0.29 0.44 0.50 0.63 0.69 0.51 0.45 0.38 0.32 0.27 0.20 0.16 0.23 0.23 0.42 0.65 0.87 0.94 0.99 0.92 1.23 1.35 1.29 1.17 1.16 1.07 1.19 1.26
0.35 0.34 0.35 0.47 0.41 0.35 0.35 0.43 0.50 0.51 0.51 0.59 0.51 0.28 0.24 0.21 0.26 0.27 0.33 0.58 0.54 0.51 0.41 0.34 0.31 0.23 0.22 0.18 0.09 0.12 0.19 0.37 0.52 0.72 0.85 0.94 1.01 1.20 1.27 1.31 1.30 1.27 1.15 1.03 1.18
0.34 0.35 0.39 0.47 0.41 0.35 0.30 0.24 0.18 0.17 0.23 0.19 0.19 0.18 0.20 0.26 0.31 0.29 0.45 0.48 0.52 0.43 0.32 0.34 0.26 0.16 0.17 0.19 0.18 0.18 0.22 0.29 0.56 0.74 0.75 0.85 0.98 1.11 1.25 1.26 1.31 1.39 1.33 1.15 1.05
0.37 0.37 0.42 0.44 0.40 0.35 0.32 0.21 0.26 0.31 0.15 0.24 0.24 0.21 0.24 0.26 0.22 0.29 0.50 0.38 0.34 0.30 0.37 0.33 0.23 0.26 0.25 0.22 0.19 0.17 0.20 0.28 0.49 0.70 0.71 0.77 0.81 1.02 1.13 1.16 1.30 1.34 1.37 1.29 1.20
0.40 0.38 0.44 0.44 0.44 0.39 0.33 0.30 0.39 0.35 0.15 0.17 0.22 0.21 0.21 0.24 0.22 0.25 0.45 0.41 0.35 0.31 0.33 0.30 0.32 0.38 0.28 0.22 0.19 0.16 0.14 0.23 0.35 0.59 0.64 0.75 0.75 0.85 1.04 1.19 1.32 1.37 1.43 1.46 1.38
0.42 0.37 0.44 0.48 0.37 0.43 0.35 0.43 0.44 0.37 0.11 0.14 0.17 0.19 0.21 0.23 0.20 0.28 0.40 0.44 0.37 0.32 0.37 0.35 0.39 0.35 0.33 0.24 0.21 0.15 0.18 0.21 0.31 0.40 0.44 0.73 0.54 0.77 0.88 1.00 1.17 1.23 1.31 1.37 1.41
0.42 0.38 0.45 0.55 0.44 0.38 0.44 0.49 0.38 0.26 0.06 0.16 0.18 0.23 0.21 0.20 0.22 0.22 0.42 0.34 0.31 0.40 0.38 0.33 0.34 0.32 0.32 0.30 0.26 0.19 0.21 0.15 0.23 0.35 0.44 0.51 0.54 0.65 0.81 0.83 1.02 1.14 1.27 1.35 1.43
0.40 0.39 0.47 0.52 0.49 0.47 0.50 0.44 0.30 0.13 0.07 0.15 0.19 0.17 0.17 0.18 0.20 0.24 0.28 0.39 0.42 0.36 0.42 0.39 0.46 0.42 0.35 0.39 0.39 0.29 0.28 0.21 0.17 0.22 0.27 0.40 0.44 0.46 0.57 0.62 0.85 1.09 1.22 1.32 1.39
0.42 0.45 0.53 0.58 0.42 0.52 0.49 0.31 0.15 0.09 0.17 0.15 0.16 0.18 0.17 0.16 0.17 0.20 0.22 0.21 0.25 0.23 0.25 0.34 0.36 0.40 0.42 0.38 0.43 0.39 0.28 0.22 0.16 0.13 0.16 0.35 0.40 0.41 0.55 0.67 0.80 0.93 1.13 1.26 1.35
0.45 0.56 0.57 0.58 0.58 0.56 0.42 0.23 0.11 0.16 0.17 0.22 0.20 0.19 0.18 0.20 0.18 0.19 0.19 0.18 0.24 0.26 0.27 0.25 0.23 0.37 0.44 0.38 0.37 0.39 0.37 0.21 0.15 0.14 0.13 0.30 0.29 0.38 0.56 0.64 0.77 0.92 1.04 1.11 1.24
0.56 0.56 0.51 0.54 0.56 0.52 0.36 0.18 0.18 0.21 0.27 0.24 0.23 0.19 0.20 0.23 0.22 0.21 0.21 0.21 0.22 0.22 0.19 0.24 0.24 0.40 0.45 0.47 0.44 0.40 0.36 0.39 0.29 0.28 0.17 0.21 0.30 0.38 0.51 0.55 0.69 0.80 0.93 0.98 1.10
0.48 0.47 0.45 0.56 0.57 0.46 0.31 0.23 0.29 0.37 0.37 0.33 0.24 0.26 0.22 0.24 0.24 0.23 0.23 0.30 0.23 0.24 0.25 0.23 0.17 0.30 0.40 0.47 0.48 0.42 0.48 0.39 0.37 0.19 0.18 0.22 0.21 0.22 0.34 0.44 0.64 0.74 0.81 0.90 1.07
0.43 0.35 0.51 0.60 0.57 0.42 0.29 0.32 0.37 0.44 0.44 0.37 0.31 0.29 0.29 0.27 0.28 0.26 0.25 0.32 0.33 0.28 0.29 0.22 0.16 0.16 0.29 0.34 0.37 0.41 0.39 0.42 0.43 0.33 0.21 0.21 0.20 0.30 0.33 0.44 0.60 0.70 0.80 0.92 0.99
0.41 0.31 0.59 0.59 0.38 0.40 0.35 0.38 0.43 0.42 0.47 0.43 0.41 0.36 0.32 0.32 0.29 0.28 0.26 0.29 0.38 0.33 0.24 0.27 0.20 0.12 0.14 0.34 0.45 0.45 0.43 0.43 0.34 0.33 0.33 0.29 0.23 0.39 0.38 0.44 0.55 0.65 0.75 0.88 0.99
0.42 0.45 0.63 0.60 0.34 0.36 0.40 0.39 0.42 0.40 0.41 0.40 0.39 0.42 0.42 0.35 0.29 0.31 0.31 0.40 0.41 0.34 0.29 0.33 0.23 0.12 0.10 0.20 0.32 0.38 0.43 0.45 0.42 0.41 0.35 0.29 0.25 0.43 0.38 0.43 0.56 0.61 0.67 0.73 0.88
0.50 0.41 0.52 0.54 0.51 0.41 0.36 0.36 0.36 0.47 0.45 0.44 0.41 0.44 0.38 0.35 0.39 0.33 0.33 0.39 0.42 0.40 0.44 0.39 0.26 0.18 0.13 0.21 0.30 0.30 0.39 0.43 0.42 0.35 0.33 0.35 0.35 0.39 0.39 0.39 0.53 0.59 0.63 0.67 0.72
0.59 0.48 0.49 0.36 0.39 0.41 0.41 0.40 0.36 0.36 0.43 0.44 0.39 0.39 0.38 0.32 0.33 0.35 0.37 0.37 0.40 0.44 0.44 0.40 0.26 0.23 0.19 0.19 0.22 0.25 0.30 0.38 0.38 0.41 0.35 0.36 0.36 0.40 0.45 0.43 0.58 0.68 0.73 0.71 0.72
0.52 0.47 0.50 0.45 0.44 0.39 0.39 0.37 0.37 0.38 0.39 0.36 0.35 0.38 0.38 0.32 0.32 0.30 0.35 0.36 0.33 0.38 0.39 0.42 0.27 0.28 0.19 0.18 0.21 0.18 0.26 0.32 0.38 0.40 0.42 0.42 0.39 0.50 0.56 0.65 0.55 0.63 0.69 0.71 0.77
0.66 0.65 0.52 0.43 0.42 0.39 0.39 0.40 0.41 0.44 0.44 0.41 0.37 0.34 0.33 0.35 0.40 0.41 0.42 0.41 0.39 0.36 0.36 0.37 0.30 0.24 0.16 0.22 0.22 0.13 0.20 0.27 0.33 0.46 0.47 0.41 0.46 0.57 0.58 0.62 0.60 0.58 0.69 0.74 0.77

GFSSW_prec_pwat_072.txt.gz
Precipitable_Water
0.44 0.43 0.42 0.42 0.45 0.45 0.45 0.43 0.41 0.40 0.42 0.44 0.48 0.50 0.55 0.53 0.53 0.47 0.29 0.36 0.42 0.37 0.77 0.98 1.12 1.18 1.29 1.20 1.33 1.43 1.17 1.06 1.10 1.17 1.28 1.47 1.43 1.63 1.72 1.51 1.56 1.58 1.50 1.60 1.74
0.40 0.39 0.38 0.38 0.40 0.42 0.45 0.44 0.42 0.40 0.42 0.45 0.45 0.48 0.53 0.54 0.42 0.34 0.36 0.39 0.50 0.48 0.72 0.75 0.77 1.02 0.96 1.05 1.15 1.15 1.15 1.20 1.29 1.34 1.30 1.40 1.50 1.49 1.37 1.35 1.36 1.46 1.58 1.69 1.67
0.40 0.38 0.37 0.37 0.38 0.41 0.43 0.43 0.40 0.38 0.43 0.44 0.43 0.48 0.49 0.49 0.30 0.33 0.61 0.63 0.55 0.59 0.81 0.84 0.87 0.82 0.75 0.89 1.02 1.08 1.09 1.29 1.31 1.40 1.41 1.40 1.42 1.48 1.34 1.23 1.36 1.33 1.45 1.57 1.57
0.37 0.36 0.36 0.37 0.38 0.40 0.41 0.41 0.39 0.40 0.41 0.43 0.43 0.48 0.47 0.40 0.14 0.41 0.69 0.74 0.56 0.71 0.76 0.74 0.73 0.57 0.56 0.65 0.84 0.87 1.01 1.36 1.39 1.40 1.36 1.40 1.45 1.30 1.37 1.41 1.50 1.52 1.55 1.54 1.51
0.34 0.33 0.35 0.38 0.39 0.41 0.40 0.40 0.40 0.40 0.41 0.43 0.48 0.50 0.43 0.24 0.19 0.55 0.69 0.81 0.62 0.65 0.66 0.57 0.53 0.48 0.40 0.54 0.69 0.77 0.92 1.18 1.36 1.39 1.33 1.40 1.31 1.29 1.27 1.43 1.52 1.54 1.54 1.51 1.52
0.32 0.32 0.34 0.37 0.40 0.40 0.38 0.39 0.37 0.38 0.41 0.47 0.51 0.52 0.36 0.14 0.34 0.48 0.63 0.75 0.59 0.56 0.65 0.53 0.49 0.46 0.35 0.40 0.49 0.60 0.71 0.88 1.04 1.10 1.23 1.19 1.24 1.27 1.33 1.47 1.44 1.45 1.44 1.50 1.45
0.34 0.33 0.34 0.40 0.45 0.39 0.36 0.36 0.36 0.40 0.46 0.48 0.51 0.48 0.31 0.22 0.32 0.46 0.61 0.62 0.76 0.65 0.57 0.51 0.51 0.40 0.33 0.31 0.43 0.51 0.52 0.58 0.73 0.97 1.01 1.20 1.02 1.14 1.42 1.37 1.34 1.37 1.37 1.45 1.45
0.34 0.35 0.36 0.41 0.47 0.40 0.36 0.39 0.43 0.45 0.45 0.50 0.58 0.50 0.27 0.41 0.41 0.46 0.61 0.62 0.75 0.86 0.67 0.58 0.50 0.41 0.30 0.30 0.25 0.31 0.41 0.42 0.60 0.89 0.98 1.10 0.88 1.23 1.43 1.35 1.25 1.30 1.30 1.39 1.40
0.37 0.37 0.38 0.44 0.45 0.39 0.37 0.44 0.48 0.49 0.50 0.60 0.55 0.43 0.23 0.40 0.25 0.27 0.50 0.55 0.74 0.63 0.71 0.56 0.44 0.36 0.30 0.19 0.16 0.21 0.24 0.33 0.64 0.87 0.94 1.01 0.95 1.30 1.39 1.31 1.21 1.26 1.25 1.33 1.36
0.39 0.37 0.39 0.45 0.41 0.41 0.37 0.45 0.47 0.51 0.53 0.58 0.47 0.33 0.22 0.21 0.27 0.24 0.33 0.58 0.62 0.59 0.46 0.42 0.35 0.27 0.25 0.18 0.11 0.13 0.16 0.23 0.49 0.75 0.89 0.92 1.02 1.18 1.31 1.25 1.20 1.23 1.24 1.16 1.26
0.42 0.39 0.40 0.44 0.41 0.40 0.39 0.33 0.29 0.23 0.25 0.18 0.18 0.17 0.19 0.23 0.30 0.33 0.42 0.51 0.54 0.53 0.33 0.31 0.26 0.20 0.20 0.21 0.20 0.18 0.17 0.19 0.37 0.76 0.79 0.78 0.95 1.12 1.25 1.26 1.17 1.14 1.16 1.07 1.23
0.46 0.42 0.40 0.44 0.45 0.43 0.43 0.27 0.27 0.28 0.18 0.23 0.21 0.21 0.23 0.24 0.20 0.31 0.54 0.34 0.38 0.33 0.33 0.29 0.21 0.28 0.28 0.24 0.21 0.19 0.20 0.20 0.34 0.60 0.70 0.74 0.81 1.09 1.27 1.22 1.27 1.29 1.31 1.17 1.18
0.49 0.43 0.37 0.45 0.45 0.45 0.37 0.36 0.41 0.36 0.18 0.19 0.21 0.19 0.20 0.22 0.19 0.24 0.45 0.45 0.31 0.31 0.34 0.29 0.29 0.30 0.29 0.26 0.20 0.19 0.17 0.19 0.25 0.44 0.65 0.69 0.72 0.85 1.10 1.24 1.27 1.35 1.49 1.45 1.25
0.49 0.42 0.37 0.45 0.41 0.43 0.36 0.46 0.45 0.40 0.15 0.16 0.17 0.19 0.21 0.22 0.19 0.31 0.39 0.46 0.41 0.28 0.31 0.32 0.39 0.36 0.30 0.27 0.25 0.17 0.20 0.19 0.24 0.35 0.37 0.61 0.45 0.74 0.91 1.07 1.17 1.25 1.35 1.39 1.36
0.47 0.42 0.41 0.51 0.45 0.41 0.42 0.46 0.39 0.31 0.10 0.17 0.18 0.23 0.21 0.18 0.20 0.22 0.37 0.39 0.31 0.41 0.36 0.28 0.32 0.35 0.31 0.32 0.34 0.23 0.24 0.21 0.18 0.25 0.36 0.57 0.52 0.61 0.89 0.91 1.04 1.16 1.31 1.34 1.40
0.46 0.44 0.48 0.53 0.53 0.50 0.51 0.45 0.32 0.16 0.09 0.15 0.19 0.17 0.18 0.18 0.20 0.23 0.26 0.35 0.38 0.34 0.45 0.38 0.43 0.40 0.37 0.40 0.37 0.35 0.25 0.23 0.19 0.16 0.19 0.34 0.43 0.47 0.78 0.88 1.00 1.12 1.28 1.33 1.39
0.47 0.51 0.57 0.57 0.45 0.54 0.53 0.36 0.17 0.10 0.16 0.15 0.16 0.17 0.16 0.16 0.18 0.19 0.21 0.21 0.24 0.22 0.24 0.34 0.39 0.45 0.43 0.33 0.37 0.35 0.26 0.20 0.14 0.11 0.09 0.22 0.32 0.43 0.65 0.94 0.96 1.04 1.23 1.32 1.40
0.53 0.58 0.57 0.54 0.55 0.54 0.47 0.28 0.16 0.17 0.17 0.22 0.19 0.19 0.16 0.18 0.19 0.20 0.20 0.18 0.22 0.22 0.26 0.26 0.23 0.38 0.41 0.37 0.35 0.33 0.33 0.20 0.16 0.11 0.11 0.14 0.18 0.30 0.57 0.71 0.91 0.93 1.02 1.25 1.32
0.53 0.51 0.49 0.51 0.55 0.51 0.37 0.22 0.22 0.23 0.27 0.24 0.23 0.19 0.19 0.21 0.21 0.21 0.22 0.24 0.23 0.22 0.18 0.25 0.23 0.43 0.44 0.43 0.40 0.39 0.31 0.36 0.25 0.29 0.21 0.16 0.17 0.36 0.46 0.54 0.70 0.78 0.86 1.09 1.21
0.43 0.43 0.44 0.55 0.56 0.45 0.32 0.25 0.30 0.35 0.35 0.32 0.24 0.26 0.23 0.25 0.25 0.25 0.24 0.31 0.25 0.25 0.25 0.24 0.16 0.31 0.41 0.46 0.44 0.40 0.46 0.35 0.35 0.22 0.20 0.23 0.20 0.19 0.32 0.47 0.57 0.63 0.71 0.94 1.05
0.48 0.38 0.52 0.59 0.55 0.43 0.31 0.33 0.36 0.42 0.41 0.35 0.31 0.29 0.29 0.28 0.29 0.28 0.27 0.31 0.34 0.28 0.29 0.25 0.18 0.19 0.26 0.30 0.32 0.37 0.37 0.42 0.40 0.35 0.25 0.22 0.22 0.30 0.35 0.43 0.46 0.57 0.66 0.82 0.91
0.49 0.36 0.59 0.60 0.40 0.41 0.35 0.39 0.42 0.40 0.44 0.40 0.39 0.35 0.33 0.33 0.30 0.29 0.28 0.31 0.41 0.35 0.26 0.30 0.22 0.16 0.15 0.39 0.42 0.44 0.42 0.38 0.36 0.34 0.36 0.32 0.27 0.45 0.40 0.39 0.51 0.53 0.63 0.78 0.89
0.48 0.49 0.63 0.57 0.34 0.34 0.39 0.37 0.40 0.39 0.39 0.37 0.37 0.39 0.40 0.33 0.28 0.31 0.31 0.38 0.42 0.35 0.33 0.36 0.23 0.18 0.15 0.16 0.25 0.33 0.43 0.45 0.45 0.41 0.36 0.33 0.32 0.49 0.50 0.49 0.50 0.52 0.62 0.75 0.88
0.52 0.41 0.47 0.47 0.45 0.37 0.34 0.34 0.34 0.42 0.39 0.40 0.37 0.39 0.35 0.32 0.36 0.32 0.33 0.38 0.42 0.40 0.46 0.38 0.26 0.23 0.16 0.22 0.28 0.28 0.37 0.41 0.42 0.36 0.35 0.38 0.46 0.44 0.45 0.45 0.56 0.64 0.74 0.82 0.81
0.50 0.41 0.45 0.33 0.35 0.38 0.38 0.36 0.32 0.32 0.38 0.37 0.33 0.32 0.32 0.27 0.29 0.29 0.34 0.37 0.39 0.42 0.41 0.40 0.30 0.29 0.26 0.25 0.24 0.23 0.24 0.29 0.35 0.40 0.35 0.38 0.42 0.50 0.56 0.57 0.60 0.71 0.75 0.85 0.87
0.46 0.44 0.46 0.40 0.42 0.38 0.36 0.34 0.33 0.35 0.34 0.30 0.29 0.34 0.32 0.28 0.30 0.27 0.31 0.35 0.35 0.41 0.38 0.41 0.30 0.31 0.27 0.26 0.21 0.19 0.21 0.23 0.26 0.35 0.41 0.43 0.44 0.52 0.58 0.60 0.59 0.73 0.72 0.80 0.92
0.61 0.60 0.51 0.41 0.40 0.36 0.35 0.36 0.36 0.39 0.36 0.37 0.35 0.31 0.30 0.34 0.40 0.40 0.39 0.37 0.39 0.37 0.36 0.37 0.34 0.30 0.23 0.23 0.23 0.17 0.16 0.19 0.24 0.29 0.35 0.35 0.43 0.53 0.58 0.57 0.69 0.68 0.73 0.77 0.88